Location: Potawatomi Wildlife Park
(41.2308°N, 86.1050°W)
Time: 21:28:07
(UTC-04:00)

Daily predictions for brighter satellites

Satellite Brightness Start Highest point End
(mag) Time Altitude Azimuth Time Altitude Azimuth Time Altitude Azimuth
Cosmos 1606 Rocket 4.5 21:39:40 10° NNE 21:43:31 31° ENE 21:47:22 10° SE
Cosmos 1025 Rocket 3.2 21:40:12 10° S 21:44:19 51° E 21:48:28 10° NNE
Okean 1-7 Rocket 3.7 21:40:12 10° S 21:44:36 60° E 21:49:03 10° NNE
Cosmos 1726 Rocket 4.4 21:48:10 10° NNE 21:52:03 31° ENE 21:55:55 10° SE
Cosmos 1624 Rocket 4.1 21:49:42 10° NNW 21:54:59 68° ENE 22:00:16 10° SSE
SL-27 R/B 4.1 21:52:22 10° SW 21:55:50 40° WNW 21:59:18 10° N
Meteor 2-4 Rocket 3.9 21:50:45 10° S 21:56:26 82° W 22:02:20 10° N
Cosmos 1437 Rocket 3.0 21:53:36 10° N 21:57:23 51° ENE 22:01:13 10° SSE
Cosmos 1515 4.5 21:54:12 10° SSE 21:57:36 32° E 22:01:02 10° NNE
USA 186 3.9 21:59:53 10° SSW 22:02:31 25° W 22:05:05 10° NW
Cosmos 2341 Rocket 4.3 21:59:03 10° N 22:05:15 53° ENE 22:11:28 10° SSE
Cosmos 1939 Rocket 3.0 22:01:43 10° S 22:05:33 70° WSW 22:09:26 10° NNW
Cosmos 1980 Rocket 3.9 22:02:01 10° N 22:06:04 20° NE 22:10:06 10° E
ARGOS 4.1 22:02:00 11° SE 22:06:34 34° ENE 22:11:23 10° N
Hubble Space Telescope 2.9 22:06:29 10° S 22:07:25 11° SSE 22:08:02 10° SSE
NOSS 8 (F) 4.4 22:04:14 10° SSW 22:07:45 74° ESE 22:11:20 10° NE
CZ-4B DEB 3.0 22:05:17 10° S 22:08:14 63° W 22:11:12 10° NNW
USA 245 4.4 22:08:25 11° E 22:09:04 12° ENE 22:10:00 10° NE
H-2A R/B 3.5 22:06:48 11° ESE 22:10:21 22° ENE 22:14:10 10° NNE
Envisat 3.8 22:08:51 10° S 22:13:47 52° W 22:18:46 10° NNW
Cosmos 2058 Rocket 3.6 22:10:29 10° N 22:14:42 41° ENE 22:18:02 15° SE
Cosmos 2056 Rocket 3.5 22:09:40 10° NNW 22:14:51 87° WSW 22:19:45 11° SSE
SPOT 5 3.4 22:16:39 15° SE 22:19:38 35° ENE 22:23:40 10° N
MetOp-B 4.4 22:15:12 13° SE 22:19:47 54° ENE 22:25:01 10° N
NOAA 11 4.2 22:21:15 13° SSE 22:26:01 68° ENE 22:31:25 10° N
Cosmos 839 Rocket 4.4 22:21:39 10° NNW 22:28:18 89° WSW 22:35:04 16° SSE
YAOGAN 11 4.4 22:25:48 18° SE 22:28:45 50° ENE 22:32:58 10° N
H-2A R/B 4.2 22:28:29 11° E 22:30:46 15° ENE 22:33:22 10° NNE
CZ-3A R/B 0.1 22:27:17 10° SW 22:31:12 80° NW 22:32:50 10° NE
Meteor 1-4 Rocket 3.6 22:28:28 10° NNE 22:31:38 29° ENE 22:33:02 22° ESE
Cosmos 2181 Rocket 4.0 22:26:31 10° S 22:32:49 72° E 22:39:05 10° NNE
NOSS 8 (H) 4.4 22:30:46 10° SW 22:34:09 86° WNW 22:37:44 10° NE
YAOGAN 6 3.4 22:31:03 10° S 22:34:24 45° W 22:37:48 10° NNW
ISS -0.8 22:32:39 10° WNW 22:35:00 18° NNW 22:37:19 10° NNE
Cosmos 1626 Rocket 4.3 22:37:59 23° SE 22:39:54 33° E 22:43:48 10° NNE
COSMOS 2487 3.0 22:40:26 10° SSW 22:43:57 59° WNW 22:47:29 10° N
Cosmos 2082 Rocket 2.1 22:39:00 10° SSW 22:44:40 80° ESE 22:50:21 10° NNE
TELKOM 3 3.2 22:43:29 10° WNW 22:45:50 74° SW 22:46:40 41° SE
ERS-1 Rocket 3.3 22:41:26 13° S 22:45:53 63° WSW 22:50:54 10° NNW
Cosmos 921 Rocket 3.5 22:41:46 10° NNW 22:46:10 59° WSW 22:49:19 18° S
Cosmos 2228 2.9 22:42:10 10° N 22:46:28 79° E 22:49:02 23° SSE
Cosmos 1452 Rocket 3.5 22:41:17 10° NNW 22:46:34 74° ENE 22:49:50 24° SSE
Cosmos 2278 4.0 22:42:22 10° NNW 22:48:01 66° WSW 22:52:11 18° S
Lacrosse 5 rocket 3.9 22:46:50 10° NNW 22:50:00 18° NNE 22:53:11 10° ENE
Cosmos 1656 3.6 22:49:51 10° NNW 22:55:20 80° WSW 22:58:45 24° SSE
Cosmos 1697 Rocket 2.6 22:55:19 10° NNW 23:00:58 81° ENE 23:04:02 28° SSE
SPOT 1/Viking Rocket 3.5 22:59:04 27° SSE 23:01:56 72° ENE 23:07:04 10° N
SL-8 Rocket 4.0 22:58:46 10° N 23:05:04 87° W 23:09:24 22° S
Meteor 1-22 Rocket 4.1 23:03:46 10° N 23:09:06 69° E 23:11:43 31° SSE
USA 229 DEB 4.0 23:05:01 10° NNW 23:12:08 66° NE 23:16:22 27° SE
USA 229 4.0 23:05:06 10° NNW 23:12:14 65° NE 23:16:28 27° SE
Cosmos 2366 rocket 3.9 23:06:24 10° N 23:12:35 80° E 23:16:01 28° SSE
SL-16 R/B 3.8 23:08:07 10° N 23:12:38 23° NE 23:15:34 16° E
Tiangong 2 1.0 23:10:57 10° WNW 23:14:09 85° NNE 23:14:31 67° E
Cosmos 1833 Rocket 3.1 23:09:50 10° SW 23:15:23 62° WNW 23:21:00 10° NNE
Cosmos 1602 Rocket 3.4 23:14:04 33° S 23:16:00 83° E 23:20:21 10° N
Cosmos 158 Rocket 4.0 23:15:00 25° S 23:18:03 68° ESE 23:23:26 10° NNE
Landsat 7 3.7 23:23:13 40° SSE 23:24:56 80° ENE 23:29:43 10° N
Cosmos 1544 3.6 23:22:51 10° N 23:26:19 41° ENE 23:26:22 41° E
Cosmos 1271 Rocket 2.8 23:24:12 10° N 23:28:06 59° E 23:28:35 53° ESE
Cosmos 1842 3.3 23:28:44 55° ESE 23:29:03 57° E 23:32:54 10° NNE
Meteor 2-14 Rocket 4.3 23:23:50 10° N 23:29:57 84° E 23:32:44 34° S
CZ-4B R/B 4.1 23:29:05 10° NNE 23:33:51 37° E 23:34:27 36° ESE
deb Chang Zheng 4 3.7 23:29:56 10° NNE 23:34:08 51° E 23:34:29 50° ESE
Terra 1.7 23:38:44 49° SSE 23:39:59 79° ENE 23:44:46 10° N
IGS 5A 3.4 23:39:46 61° SE 23:40:23 75° ENE 23:44:33 10° N
CARTOSAT-1 3.4 23:40:58 59° SSE 23:41:46 84° ENE 23:46:06 10° N
ATLAS CENTAUR R/B 2.5 23:38:51 10° N 23:42:01 27° NE 23:42:28 26° ENE
SL-19 R/B 4.0 23:36:52 10° NNE 23:42:09 68° ESE 23:43:40 45° SSE
ARGOS 4.5 23:43:31 18° SSW 23:46:45 32° W 23:51:36 10° NNW
Cosmos 2360 Rocket 4.1 23:44:57 10° N 23:48:58 19° NE 23:51:48 14° E
H-2A R/B 2.7 23:47:25 30° SSW 23:49:26 45° W 23:54:18 10° NNW
Cosmos 1980 Rocket 2.3 23:45:00 10° NNW 23:50:37 68° WSW 23:52:22 44° S
